Lid_Strength_Index
10 9 9 10 10 9 11 10 13 12 12 10 9 8 8 7 6 6 6 6 5 5 5 5 5 4 4 4 4 4 3 3 3 3 3 2 2 2 2 2 1 2 2 2
12 9 9 11 9 9 9 10 10 10 11 8 7 7 7 7 7 7 6 5 5 5 5 5 4 3 3 3 3 3 2 3 2 2 3 2 2 2 2 2 2 2 3 3
17 11 10 13 11 10 10 10 10 13 11 8 8 7 7 7 6 6 6 5 5 4 4 4 5 4 5 4 3 3 3 3 3 3 3 2 2 2 2 4 3 4 5 5
16 13 18 12 8 8 10 9 9 9 8 8 8 7 6 5 6 6 5 5 4 4 4 3 3 3 3 3 4 4 4 4 4 3 3 3 3 3 3 4 4 5 5 5
17 16 13 12 10 11 11 12 8 9 8 7 7 7 7 5 4 5 5 4 4 3 3 3 3 4 4 4 4 5 5 5 4 3 4 4 4 4 4 5 5 6 4 4
15 18 19 13 9 7 8 14 8 8 8 8 7 11 9 5 4 4 4 3 4 3 3 4 4 4 4 4 5 5 4 3 4 3 4 5 6 5 4 5 4 3 2 2
15 16 14 9 8 7 15 13 8 7 7 8 9 8 6 5 4 4 4 3 3 3 4 4 5 5 5 4 4 3 3 4 4 4 5 5 4 4 4 5 4 3 3 3
14 16 17 7 8 11 9 7 7 7 7 7 6 6 5 5 4 4 4 4 3 3 4 5 5 5 5 5 4 4 4 4 4 5 4 3 4 5 5 5 5 4 4 4
12 13 8 6 8 6 6 7 7 6 6 6 6 6 5 5 5 4 4 4 4 4 4 4 4 4 5 4 4 5 5 6 5 4 4 4 5 5 6 5 5 5 4 5
11 9 8 7 6 5 5 5 5 5 5 5 6 5 5 5 5 5 5 6 6 5 5 5 5 3 4 4 4 4 5 4 5 5 5 5 3 3 4 5 5 5 5 5
11 9 7 6 6 5 5 5 5 5 5 4 5 5 5 5 6 6 6 6 6 7 6 6 5 5 5 4 3 4 5 5 5 5 5 4 3 4 4 4 5 5 5 6
12 8 8 7 6 6 6 6 5 5 5 5 4 5 5 6 6 7 7 7 6 6 6 6 5 4 3 3 4 5 5 5 5 5 5 5 6 5 5 6 8 7 7 7
8 5 6 5 5 5 6 6 6 5 4 4 4 4 5 6 6 6 6 6 6 6 5 5 4 3 3 3 4 5 5 5 5 5 5 5 5 5 6 5 7 7 7 7
5 5 6 5 7 6 6 5 4 4 3 3 4 5 6 6 6 6 6 6 5 5 5 5 3 3 2 2 3 3 4 5 5 6 6 5 5 5 6 7 7 7 6 6
5 5 6 6 6 5 4 4 4 4 4 5 4 5 5 6 5 4 4 4 4 3 3 2 3 3 2 2 3 4 4 3 4 4 5 5 6 6 6 7 7 7 6 6
5 5 5 6 5 5 5 5 5 5 5 5 5 4 4 4 4 4 4 2 3 4 2 3 3 2 2 3 3 4 4 4 4 4 4 6 6 7 7 7 7 7 6 6
6 6 5 6 5 5 5 5 5 5 5 5 5 4 4 4 4 4 4 3 3 3 3 4 4 4 3 3 4 4 3 2 5 4 6 6 6 7 7 7 7 7 6 6
5 5 5 5 5 5 5 5 5 5 5 5 5 5 5 5 6 5 5 4 3 3 3 3 3 3 3 2 3 4 3 3 4 5 5 6 6 6 7 7 7 6 6 6
5 5 4 4 4 5 5 5 5 6 5 5 5 6 5 5 5 5 5 5 5 4 3 2 3 2 1 2 4 4 2 4 4 4 5 5 5 6 6 7 6 5 5 3
4 4 4 4 4 5 5 5 5 5 5 5 5 6 6 6 6 6 5 5 3 3 2 2 2 2 3 4 5 4 3 3 3 4 3 3 5 6 4 7 5 5 5 4
4 4 4 4 4 3 4 5 5 5 5 5 6 7 6 6 5 5 5 4 2 3 3 3 3 3 3 7 4 1 1 2 2 3 5 4 4 5 5 5 5 4 5 4
4 4 4 4 4 5 5 5 5 5 6 6 5 5 6 7 7 6 4 4 3 5 3 2 4 10 8 8 1 2 4 4 4 5 7 6 6 7 7 7 6 6 4 4
5 4 4 4 5 6 5 4 5 5 6 6 6 6 5 6 5 5 6 4 4 6 5 4 10 10 10 3 4 4 5 5 5 6 6 6 6 6 7 7 7 6 6 6
5 5 5 4 4 5 6 6 5 5 5 5 5 5 6 7 7 7 6 7 8 6 4 5 7 10 9 5 6 6 6 6 6 7 7 9 7 7 7 7 7 6 6 7
5 5 4 4 4 5 6 5 5 5 5 5 5 5 6 6 6 4 3 3 5 5 4 9 10 10 6 6 6 6 7 7 7 7 7 8 8 9 8 8 8 8 8 8
5 5 4 4 6 4 5 4 6 6 5 6 5 5 5 4 4 4 4 5 5 7 8 7 6 6 6 6 6 6 7 7 7 8 8 8 8 8 8 8 8 8 8 9
5 6 5 6 4 4 5 6 6 6 5 5 6 4 4 5 5 5 6 5 6 7 6 6 6 6 6 7 7 7 7 7 9 7 7 8 8 8 8 9 10 10 10 10